"Pseudo-MPEC" for C1HNYA2

Created 2019 Dec 7 12:07:09 UT using Find_Orb

Click here for an explanation of pseudo-MPECs

 
 Astrometry: 
     C1HNYA2  C2019 12 02.49661 10 42 44.19 +33 38 31.5    ~C2Cq 20.3 GVNEOCPG96
     C1HNYA2  C2019 12 02.50175 10 42 36.72 +33 37 35.2    ~C2Cq 20.8 GVNEOCPG96
     C1HNYA2  C2019 12 02.50690 10 42 29.26 +33 36 39.5    ~C2Cq 22.1 GVNEOCPG96
     C1HNYA2  C2019 12 02.51204 10 42 21.95 +33 35 43.8    ~C2Cq 21.0 GVNEOCPG96
     C1HNYA2  C2019 12 02.52889 10 41 57.61 +33 32 39.4    ~C2D7 21.1 GVNEOCPI52
     C1HNYA2  C2019 12 02.53036 10 41 55.54 +33 32 22.8    ~C2D7       VNEOCPI52
     C1HNYA2  C2019 12 02.53327 10 41 51.33 +33 31 51.5    ~C2D7 21.4 GVNEOCPI52

Station data:
(G96) Mt. Lemmon Survey  (N32.442754 W110.788720)  US/Arizona.  Observers T.
   A. Pruyne, B. M. Africano, E. J. Christensen, G. A. Farneth, D. C. Fuls,
   A. R. Gibbs, A. D. Grauer, H. Gröller, J. A. Johnson, R. A. Kowalski, S.
   M. Larson, G. J. Leonard, D. Rankin, R. L. Seaman, F. C. Shelly. 1.5-m
   reflector + 10K CCD.
(I52) Steward Observatory, Mt. Lemmon Station  (N32.442547 W110.788920)
   US/Arizona.  Observers T. A. Pruyne, B. M. Africano, E. J. Christensen, G.
   A. Farneth, D. C. Fuls, A. R. Gibbs, A. D. Grauer, H. Gröller, J. A.
   Johnson, R. A. Kowalski, S. M. Larson, G. J. Leonard, D. Rankin, R. L.
   Seaman, F. C. Shelly. 1.0-m reflector + CCD.

Orbital elements:  C1HNYA2
   Perihelion 2019 Sep 26.872988 +/- 26.8 TT = 20:57:06 (JD 2458753.372988)
Epoch 2019 Dec  3.0 TT = JDT 2458820.5   Earth MOID: 0.0136   AutoNEOCP
M  59.20275947 +/- 44               (J2000 ecliptic)
n   0.88195135 +/- 0.4              Peri.   92.16861 +/- 37
a   1.07689400 +/- 0.326            Node   256.89396 +/- 12
e   0.2235878 +/- 0.16              Incl.   18.60441 +/- 21
P   1.12/408.18d           H 24.9   G  0.15   U 12.1  SR
q 0.83611358 +/- 0.126    Q 1.31767443 +/- 1.06
From 7 observations 2019 Dec. 2 (52.8 min); mean residual 0".38
Residuals in arcseconds: 
191202 G96  .67+  .25+    191202 G96  .31+  .19+    191202 I52  .15+  .29+    
191202 G96  .26-  .33-    191202 I52  .32-  .07+    
191202 G96  .85-  .08-    191202 I52  .30+  .39-    

Ephemerides (geocentric):
Date (UTC) HH   RA              Dec         delta   r     elong  mag " sig PA
---- -- -- --  -------------   -----------  ------ ------ -----  --- ---- ---
2019 12 07 12  08 53 51.439   +13 47 46.83  .05669 1.0169 122.7 20.7 727' 137
2019 12 07 13  08 53 03.626   +13 36 52.93  .05674 1.0171 122.9 20.7 738' 137
2019 12 07 14  08 52 15.959   +13 25 59.63  .05679 1.0172 123.1 20.7 749' 137
2019 12 07 15  08 51 28.439   +13 15 06.97  .05684 1.0174 123.2 20.7 760' 137
2019 12 07 16  08 50 41.066   +13 04 14.97  .05689 1.0176 123.4 20.7 771' 137
2019 12 07 17  08 49 53.840   +12 53 23.68  .05694 1.0177 123.6 20.7 782' 137
2019 12 07 18  08 49 06.762   +12 42 33.13  .05700 1.0179 123.7 20.7 793' 137
2019 12 07 19  08 48 19.832   +12 31 43.36  .05705 1.0180 123.9 20.7 803' 137
2019 12 07 20  08 47 33.050   +12 20 54.41  .05711 1.0182 124.0 20.7 814' 137
2019 12 07 21  08 46 46.417   +12 10 06.30  .05717 1.0184 124.2 20.7 825' 137
2019 12 07 22  08 45 59.933   +11 59 19.07  .05723 1.0185 124.4 20.7 836' 137
2019 12 07 23  08 45 13.597   +11 48 32.75  .05729 1.0187 124.5 20.7 847' 137
2019 12 08 00  08 44 27.412   +11 37 47.38  .05735 1.0188 124.7 20.7 858' 137
2019 12 08 01  08 43 41.376   +11 27 03.00  .05741 1.0190 124.9 20.7 868' 137
2019 12 08 02  08 42 55.490   +11 16 19.63  .05747 1.0191 125.0 20.7 879' 137
2019 12 08 03  08 42 09.754   +11 05 37.31  .05754 1.0193 125.2 20.7 890' 137
2019 12 08 04  08 41 24.169   +10 54 56.06  .05760 1.0195 125.3 20.7 901' 137
2019 12 08 05  08 40 38.735   +10 44 15.93  .05767 1.0196 125.5 20.7 911' 137
2019 12 08 06  08 39 53.451   +10 33 36.93  .05774 1.0198 125.6 20.7 922' 137
2019 12 08 07  08 39 08.318   +10 22 59.11  .05781 1.0199 125.8 20.6 932' 137
2019 12 08 08  08 38 23.336   +10 12 22.50  .05788 1.0201 125.9 20.6 943' 137
2019 12 08 09  08 37 38.505   +10 01 47.11  .05795 1.0203 126.1 20.6 953' 137
2019 12 08 10  08 36 53.826   +09 51 12.99  .05802 1.0204 126.2 20.6 964' 137
2019 12 08 11  08 36 09.298   +09 40 40.15  .05810 1.0206 126.4 20.6 974' 137
2019 12 08 12  08 35 24.922   +09 30 08.64  .05817 1.0207 126.5 20.6 984' 137
2019 12 08 13  08 34 40.698   +09 19 38.48  .05825 1.0209 126.7 20.6 994' 137
2019 12 08 14  08 33 56.625   +09 09 09.69  .05833 1.0210 126.8 20.6  17d 137
2019 12 08 15  08 33 12.704   +08 58 42.30  .05841 1.0212 127.0 20.6  17d 137
2019 12 08 16  08 32 28.935   +08 48 16.34  .05849 1.0214 127.1 20.6  17d 137
2019 12 08 17  08 31 45.318   +08 37 51.84  .05857 1.0215 127.3 20.6  17d 137
2019 12 08 18  08 31 01.853   +08 27 28.83  .05865 1.0217 127.4 20.6  17d 137
2019 12 08 19  08 30 18.540   +08 17 07.32  .05873 1.0218 127.5 20.6  18d 137
2019 12 08 20  08 29 35.379   +08 06 47.34  .05882 1.0220 127.7 20.6  18d 137
2019 12 08 21  08 28 52.370   +07 56 28.92  .05890 1.0222 127.8 20.6  18d 137
2019 12 08 22  08 28 09.513   +07 46 12.08  .05899 1.0223 128.0 20.6  18d 137
2019 12 08 23  08 27 26.807   +07 35 56.85  .05907 1.0225 128.1 20.6  18d 137
2019 12 09 00  08 26 44.254   +07 25 43.24  .05916 1.0226 128.2 20.6  18d 137
2019 12 09 01  08 26 01.852   +07 15 31.29  .05925 1.0228 128.4 20.6  19d 137
2019 12 09 02  08 25 19.603   +07 05 21.01  .05934 1.0229 128.5 20.6  19d 137
2019 12 09 03  08 24 37.504   +06 55 12.42  .05944 1.0231 128.6 20.6  19d 137
2019 12 09 04  08 23 55.558   +06 45 05.56  .05953 1.0233 128.8 20.6  19d 137
2019 12 09 05  08 23 13.763   +06 35 00.43  .05962 1.0234 128.9 20.6  19d 137
2019 12 09 06  08 22 32.119   +06 24 57.06  .05972 1.0236 129.0 20.6  19d 137
2019 12 09 07  08 21 50.627   +06 14 55.46  .05981 1.0237 129.2 20.6  19d 137
2019 12 09 08  08 21 09.286   +06 04 55.67  .05991 1.0239 129.3 20.6  20d 137
2019 12 09 09  08 20 28.096   +05 54 57.70  .06001 1.0241 129.4 20.6  20d 137
2019 12 09 10  08 19 47.057   +05 45 01.56  .06011 1.0242 129.5 20.6  20d 138
2019 12 09 11  08 19 06.169   +05 35 07.27  .06021 1.0244 129.7 20.6  20d 138